Voltar ao catálogo

STARLINK-30450

AtivoComunicaçõesVLEO
NORAD 57913·PAYLOAD·🇺🇸 United States

Lançado Sep 24, 2023 de Cape Canaveral Space Force Station

Loading…

Próximas Passagens (próximas 24 horas)

TLE

AtualizadoSource: CelesTrak SupGP

Época: Sep 15, 2026, 02:49 UTC

1 57913C 23147A   26258.11784722  .00041313  00000+0  14966-2 0  2584
2 57913  43.0028 335.1428 0001731 257.4814  38.9137 15.27551686    11

Acompanhe STARLINK-30450 em tempo real com AllMySat

Download on the App Store